Find Starlink 32493

NORAD ID: 62025 Int'l Des: 2024-213 Owner: SPXS Country: US Constellation: starlink operational
LEOCIRCULAR

リアルタイム位置

3D地球を読み込み中...

Starlink 32493について

説明を読み込み中...

次回通過

Passes for default location (London). Set your location on the main map for personalized predictions.

高度履歴

Loading altitude history...

軌道要素

1 62025U 24213T 26121.47910744 .00038015 00000-0 12879-2 0 9991
2 62025 53.1575 283.1696 0001391 81.6464 278.4694 15.30230033 81235
Epoch: May 1, 2026 • Age: 7 hours

現在のステータス

高度 475.3 km
速度 7.63 km/s
衛星直下点 6.83°N, 40.73°W
打ち上げ日 Nov 18, 2024
運用期間 1.4 years
タイプ internet

技術仕様

分類 Payload
質量 730.00 kg
乾燥質量 700.00 kg
総質量 730.00 kg
長さ 0.30 m
直径 4.10 m
スパン 29.00 m
形状 Box + pan
製造者 SPXS
バスタイプ Starlink V2M
フェーズステータス In Orbit
所有者/国 SPXS/US

Most Searched